Regional Weather Roundup
Issued by NWS

Home | Current Version | Previous Version | Graphics & Text | Print | Product List | Glossary On
Versions: 1 2 3 4 5 6 7 8 9 10 11 12 13 14 15 16 17 18 19 20 21 22 23 24 25 26 27 28 29 30 31 32 33 34 35 36 37 38 39 40 41 42 43 44 45 46 47 48 49 50
000
ASUS43 KMPX 020110
RWRMN
WEATHER ROUNDUP FOR MINNESOTA
NATIONAL WEATHER SERVICE TWIN CITIES/CHANHASSEN MN
800 PM CDT MON JUN 01 2015


NOTE: "FAIR" INDICATES FEW OR NO CLOUDS BELOW 12,000 FEET WITH NO
SIGNIFICANT WEATHER AND/OR OBSTRUCTIONS TO VISIBILITY. N/A MEANS
CURRENT SKY AND/OR WEATHER CONDITIONS ARE NOT AVAILABLE.

MNZ060>063-068>070-020200-
   Twin Cities Metro

CITY           SKY/WX    TMP DP  RH WIND       PRES   REMARKS
TWIN CITIES    MOCLDY    67  39  35 SE9       30.13S
ST PAUL        PTCLDY    66  41  40 SE10      30.14S
CRYSTAL        PTCLDY    67  39  35 SE8       30.12S
BLAINE         MOCLDY    68  39  34 SE8       30.13F
LAKEVILLE      PTCLDY    66  41  39 SE6       30.13S
EDEN PRAIRIE   PTCLDY    68  39  34 SE10      30.11F
SOUTH ST PAUL  PTCLDY    67  39  34 SE7       30.13F
LAKE ELMO      FAIR      64  43  45 SE5       30.16S
$$
MNZ001>005-007-008-013>017-022>024-027-028-020200-
   Northwest Minnesota

CITY           SKY/WX    TMP DP  RH WIND       PRES   REMARKS
BEMIDJI        MOCLDY    64  41  42 S9        30.04S
HALLOCK        MOSUNNY   70  45  40 S20G26    29.90F
ROSEAU         CLOUDY    68  46  45 S12       29.97F
WARROAD        PTSUNNY   64  50  59 SE13      29.99F
THIEF RVR FALL MOSUNNY   68  45  42 S16G22    29.97F
CROOKSTON      SUNNY     70  46  43 S20G28    29.94F
FOSSTON        CLOUDY    66  46  48 S13G18    30.00F
DETROIT LAKES  CLEAR     68  45  42 S20G26    30.01F
MOORHEAD       SUNNY     72  45  37 S20G30    29.94F
PARK RAPIDS    MOCLDY    67  42  40 S14       30.05F
MAHNOMEN       FAIR      66  46  47 SE12      29.98F
$$
MNZ006-009>011-018-025>026-020200-
   North Central Minnesota

CITY           SKY/WX    TMP DP  RH WIND       PRES   REMARKS
BAUDETTE       CLOUDY    65  40  39 S13       30.02S
FLAG ISLAND    PTSUNNY   61  52  72 S14       29.99S
INTL FALLS     CLOUDY    66  38  35 VRB5      30.04F
WASKISH        CLOUDY    64  43  45 SE7       30.04S
BIG FORK       MOCLDY    64  37  36 S10       30.07F
LONGVILLE      PTCLDY    63  34  34 SE9       30.08F
GRAND RAPIDS   CLOUDY    63  34  34 S13       30.10S
CRANE LAKE     CLEAR     64  36  34 SE7G17    30.10S
COOK           PTCLDY    64  37  36 S8G17     30.10F
WALKER         CLOUDY    64  35  34 SE7       30.05F
$$
MNZ012-019>021-037-020200-
   Northeast Minnesota

CITY           SKY/WX    TMP DP  RH WIND       PRES   REMARKS
DULUTH         PTCLDY    54  32  43 E13       30.15F
ELY            CLEAR     63  36  36 S9        30.13S
HIBBING        CLOUDY    64  37  36 S8        30.11S
EVELETH        PTCLDY    63  36  36 S10       30.13S
DULUTH HARBOR  PTCLDY    45  37  76 E10       30.19S
TWO HARBORS    PTCLDY    54  32  43 NE9       30.16S
SILVER BAY     PTCLDY    48  27  43 CALM      30.18S
GRAND MARAIS     N/A     45  32  60 NE6       30.20F
G MARAIS ARPRT CLEAR     50  27  40 E7        30.20F
$$
MNZ029>031-032-039>041-046>048-054>057-064-020200-
   West Central Minnesota

CITY           SKY/WX    TMP DP  RH WIND       PRES   REMARKS
FERGUS FALLS   CLEAR     72  45  37 S20G25    29.99S
WHEATON        PTCLDY    72  46  40 SE15      29.98F
MORRIS         PTCLDY    72  46  40 SE18G24   29.99F
ALEXANDRIA     CLEAR     68  42  38 SE15      30.05F
ELBOW LAKE     FAIR      70  46  42 SE20      29.99F
WADENA         MOCLDY    66  45  45 SE13G20   30.05F
GLENWOOD       PTCLDY    70  43  37 SE15      30.05F
APPLETON       CLEAR     73  43  33 SE9       29.99F
BENSON         CLEAR     72  39  30 S12G20    30.02F
ORTONVILLE     MOCLDY    73  45  35 SE10      29.98S
MADISON        PTCLDY    75  43  31 S15       29.99F
WILLMAR        FAIR      73  43  33 SE15      30.06F
$$
MNZ033>034-036-042>043-049>051-058-059-020200-
   Central Minnesota

CITY           SKY/WX    TMP DP  RH WIND       PRES   REMARKS
ST CLOUD       PTCLDY    66  37  34 SE12      30.10F
SAUK CENTRE    FAIR      67  43  42 SE15      30.07F
PAYNESVILLE    PTCLDY    65  42  42 E8        30.08F
AITKIN         MOCLDY    63  37  39 SE9       30.09F
PINE RIVER     PTCLDY    64  39  39 S9        30.11S
BRAINERD       PTCLDY    64  35  34 S12       30.10F
STAPLES        MOCLDY    64  39  39 SE10G17   30.07F
LONG PRAIRIE   MOCLDY    64  43  45 SE14      30.07F
LITTLE FALLS   PTCLDY    63  36  36 SE8       30.09F
LITCHFIELD     CLEAR     70  43  37 SE9       30.09F
BUFFALO        MOCLDY    67  37  32 SE8       30.12F
MAPLE LAKE     PTCLDY    68  43  40 SE5       30.11F
$$
MNZ037-044-045-052-053-020200-
   East Central Minnesota

CITY           SKY/WX    TMP DP  RH WIND       PRES   REMARKS
PRINCETON      MOCLDY    68  37  32 SE6       30.12F
MORA           MOCLDY    64  39  39 S6        30.15S
CAMBRIDGE      PTCLDY    66  46  48 SE7       30.11F
RUSH CITY      PTCLDY    65  41  42 S3        30.14S
MOOSE LAKE     PTCLDY    59  37  44 NE5       30.13S
HINCKLEY       FAIR      63  43  48 SE5       30.13F
CLOQUET        PTCLDY    52  32  46 E6        30.16S
MCGREGOR       PTCLDY    63  36  36 S12       30.13R
$$
MNZ071>073-080-081-089-090-097-098-020200-
   Southwest Minnesota

CITY           SKY/WX    TMP DP  RH WIND       PRES   REMARKS
MONTEVIDEO     CLEAR     73  45  35 S13       30.02F
GRANITE FALLS  PTCLDY    74  43  32 SE17      30.04S
CANBY          PTCLDY    73  46  37 S13       30.00F
MARSHALL       PTCLDY    73  45  35 S15       30.02S
REDWOOD FALLS  CLEAR     72  42  34 SE20      30.05F
OLIVIA         CLEAR     68  39  34 SE15G22   30.05F
PIPESTONE      CLEAR     72  45  37 S16       30.03S
WINDOM         PTCLDY    70  43  37 SE12      30.08S
WORTHINGTON    CLEAR     72  45  37 SE12G17   30.06F
JACKSON        CLEAR     70  43  37 SE10      30.09F
TRACY          PTCLDY    73  46  37 S12G18    30.04F
SLAYTON        PTCLDY    72  43  35 SE20      30.05F
$$
MNZ065>067-074>077-082>085-091>093-020200-
   South Central Minnesota

CITY           SKY/WX    TMP DP  RH WIND       PRES   REMARKS
MANKATO        MOCLDY    70  36  28 SE15      30.11S
NEW ULM        PTCLDY    68  39  34 SE9       30.09S
ST JAMES       CLEAR     72  41  33 SE13      30.09F
FAIRMONT       CLEAR     70  37  30 SE14      30.09F
GLENCOE        PTCLDY    70  41  34 SE10      30.10S
FARIBAULT      PTCLDY    68  39  34 SE9       30.13S
OWATONNA       PTCLDY    66  34  30 SE8       30.13S
WASECA         PTCLDY    68  36  30 SE8       30.13S
ALBERT LEA     PTCLDY    70  37  30 S7        30.12F
$$
MNZ078>079-086>088-094>096-020200-
   Southeast Minnesota

CITY           SKY/WX    TMP DP  RH WIND       PRES   REMARKS
ROCHESTER      PTCLDY    62  42  47 SE10      30.16F
RED WING       PTCLDY    66  43  42 SE8       30.14S
STANTON        PTCLDY    67  39  35 SE7       30.12F
DODGE CENTER   CLEAR     66  39  37 SE12      30.14F
WINONA         PTCLDY    64  39  39 CALM      30.17S
AUSTIN         CLEAR     64  39  39 SE8       30.13F
PRESTON        MOCLDY    63  40  42 SE5       30.17S
$$
ABBREVIATIONS USED IN REMARKS
   TC - TEMPERATURES IN CELSIUS
  WCI - WIND CHILL INDEX
   HX - HEAT INDEX
  VSB - VISIBILITY
$$



USA.gov is the U.S. government's official web portal to all federal, state and local government web resources and services.